Regional Weather Roundup
Issued by NWS

Home | Current Version | Previous Version | Graphics & Text | Print | Product List | Glossary On
Versions: 1 2 3 4 5 6 7 8 9 10 11 12 13 14 15 16 17 18 19 20 21 22 23 24 25 26 27 28 29 30 31 32 33 34 35 36 37 38 39 40 41 42 43 44 45 46 47 48 49 50
000
ASUS45 KABQ 190801
RWRNM
NEW MEXICO REGIONAL WEATHER ROUNDUP
NATIONAL WEATHER SERVICE ALBUQUERQUE NM
100 AM MST FRI JAN 19 2018

NOTE: "FAIR" MEANS FEW OR NO CLOUDS BELOW 12,000 FEET AGL WITH NO
       SIGNIFICANT WEATHER OR OBSTRUCTIONS TO VISION.

      THIS PRODUCT IS RELEASED AS TWO VERSIONS.  ONE VERSION NEAR
      THE TOP OF THE HOUR CONTAINING PRELIMINARY DATA FROM ALBUQUERQUE
      AND OTHER STATIONS.  A FINAL VERSION WITH ADDITIONAL DATA IS
      ISSUED ABOUT 10 MINUTES AFTER THE HOUR.

NMZ501-503-504-510>518-190900-
NORTHWEST PLATEAU/NORTHCENTRAL MOUNTAINS

CITY           SKY/WX    TMP DP  RH WIND       PRES   REMARKS
FARMINGTON     FAIR      25  15  66 E8        30.18F WCI  16
LOS ALAMOS     FAIR      35  10  34 CALM      30.17F
SANTA FE       FAIR      23  11  60 NW5       30.14F WCI  17
TAOS           FAIR      16   2  54 N5        30.21S WCI   9
ANGEL FIRE     FAIR      10   2  69 CALM      30.20F

$$
NMZ402-403-502-505>509-190900-
WESTCENTRAL MOUNTAINS/SOUTHWEST MOUNTAINS

CITY           SKY/WX    TMP DP  RH WIND       PRES   REMARKS
GALLUP         FAIR      21  13  71 E3        30.21F
GRANTS         FAIR      21   9  59 NW6       30.22F WCI  14
SILVER CITY    FAIR      27  11  51 NW6       30.18S WCI  21

$$
NMZ407-409-411-412-190900-
SOUTHERN DESERTS

CITY           SKY/WX    TMP DP  RH WIND       PRES   REMARKS
DEMING         FAIR      25   8  48 CALM      30.18F
LAS CRUCES     FAIR      29   8  42 W3        30.19S
HOLLOMAN AFB   FAIR      22   3  43 CALM      30.20F
ALAMOGORDO     FAIR      27   5  39 CALM      30.18F
T OR C         FAIR      31   6  35 W7        30.17F WCI  24

$$
NMZ519>523-190900-
CENTRAL VALLEYS/CENTRAL HIGHLANDS

CITY           SKY/WX    TMP DP  RH WIND       PRES   REMARKS
ALBUQUERQUE    MOCLDY    34  11  38 SE5       30.17F WCI  30
MORIARTY ARPT  FAIR      16   3  55 CALM      30.15F
CLINES CORNERS NOT AVBL
BELEN          FAIR      24   7  49 CALM      30.17F
SOCORRO        FAIR      28   7  41 CALM      30.17F

$$
NMZ524>526-539-540-190900-
SOUTHCENTRAL MOUNTAINS

CITY           SKY/WX    TMP DP  RH WIND       PRES   REMARKS
RUIDOSO        NOT AVBL

$$
NMZ527>531-190900-
NORTHEAST HIGHLANDS/NORTHEAST PLAINS

CITY           SKY/WX    TMP DP  RH WIND       PRES   REMARKS
LAS VEGAS      FAIR      35   3  26 NW7       30.06F WCI  29
RATON          FAIR      22   6  50 NE5       30.02F WCI  16
CLAYTON        FAIR      40   6  24 W9        29.95F WCI  34

$$
NMZ532>537-190900-
EASTCENTRAL PLAINS

CITY           SKY/WX    TMP DP  RH WIND       PRES   REMARKS
TUCUMCARI      FAIR      31  13  47 W9        29.97F WCI  23
CANNON AFB     FAIR      32  13  44 W14       30.05F WCI  22
CLOVIS AIRPORT FAIR      33  14  45 W13       30.04F WCI  24

$$
NMZ028-029-538-190900-
SOUTHEAST PLAINS

CITY           SKY/WX    TMP DP  RH WIND       PRES   REMARKS
ROSWELL        FAIR      21   6  52 W6        30.08F WCI  13
ARTESIA        FAIR      27  10  50 SW8       30.10F WCI  18
CARLSBAD       FAIR      20  10  65 NW6       30.09F WCI  12
HOBBS          FAIR      25  14  63 W7        30.11F WCI  17


$$




USA.gov is the U.S. government's official web portal to all federal, state and local government web resources and services.